F1PPH-1 Weather Reports


time (UTC)temp
C
wind
direction
speed
KPH
gust
KPH
rain 1hr
cm
rain 24hr
cm
rain mn
cm
humidity
%
barometer
mb
20260831084203 23 0.0 0.0 0.00 0.00 0.00 55 1011.3
20260831074201 21 0.0 0.0 0.00 0.00 0.00 55 1010.7
20260831064201 20 0.0 0.0 0.00 0.00 0.00 55 1010.2
20260831054201 19 0.0 0.0 0.00 0.00 0.00 55 1009.5
20260831044200 20 0.0 0.0 0.00 0.00 0.00 54 1009.1
20260831034200 20 0.0 0.0 0.00 0.00 0.00 53 1009.0
20260831024200 20 0.0 0.0 0.00 0.00 0.00 52 1008.7
20260831014201 20 0.0 0.0 0.00 0.00 0.00 51 1008.6
20260831004202 20 0.0 0.0 0.00 0.00 0.00 50 1008.6
20260830234159 21 0.0 0.0 0.00 0.00 0.00 49 1008.3
20260830224159 20 0.0 0.0 0.00 0.00 0.00 48 1008.2
20260830214159 21 0.0 0.0 0.00 0.00 0.00 46 1008.1
20260830204158 21 0.0 0.0 0.00 0.00 0.00 45 1007.9
20260830194158 23 0.0 0.0 0.00 0.00 0.00 44 1007.6
20260830184158 26 0.0 0.0 0.00 0.00 0.00 42 1007.0
20260830174157 28 0.0 0.0 0.00 0.00 0.00 40 1006.7
20260830164157 28 0.0 0.0 0.00 0.00 0.00 40 1006.4
20260830154157 31 0.0 0.0 0.00 0.00 0.00 38 1006.2
20260830144156 31 0.0 0.0 0.00 0.00 0.00 38 1006.5
20260830134156 33 0.0 0.0 0.00 0.00 0.00 39 1006.8
20260830124155 30 0.0 0.0 0.00 0.00 0.00 43 1007.6
20260830114155 31 0.0 0.0 0.00 0.00 0.00 44 1007.9
20260830104156 30 0.0 0.0 0.00 0.00 0.00 53 1008.3
20260830094157 27 0.0 0.0 0.00 0.00 0.00 56 1008.7